#timestamp,LO_Frequency,Hit,StdDev 
1645725615.2,286046976.0,N
1645725635.1,286046978.7,N
1645725636.0,286046978.7,N
1645725655.8,286046985.9,N
1645725675.7,286046994.2,N
1645725695.5,286046995.3,N
1645725715.3,286046996.3,N
1645725735.2,286046995.9,N
1645725755.0,286046992.9,N
1645725755.9,286046992.9,N
1645725775.7,286046990.6,N
1645725795.6,286046998.7,N
1645725815.4,286047002.3,N
1645725835.3,286047003.4,N
1645725855.1,286047009.0,N
1645725856.0,286047009.0,N
1645725875.8,286047010.9,N
1645725895.7,286047010.9,N
1645725915.5,286047007.0,N
1645725935.3,286047007.6,N
1645725955.2,286047009.9,N
1645725975.0,286047013.7,N
1645725975.9,286047013.7,N
1645725995.8,286047011.9,N
1645726015.6,286047011.4,N
1645726035.4,286047016.9,N
1645726055.3,286047015.9,N
1645726075.1,286047014.2,N
1645726095.8,286047014.5,N
1645726115.7,286047012.8,N
1645726135.5,286047020.3,N
1645726155.4,286047020.6,N
1645726175.2,286047021.9,N
1645726195.0,286047015.7,N
1645726195.9,286047015.7,N
1645726215.8,286047016.9,N
1645726235.6,286047017.9,N
1645726255.4,286047023.5,N
1645726275.3,286047025.2,Y
1645726295.1,286047014.4,P
1645726315.9,286047015.3,P
1645726335.7,286047009.4,P
1645726355.5,286047011.4,Y
1645726405.4,286046998.2,E
1645726415.3,286047002.2,N
1645726435.2,286047007.0,P
1645726455.0,286047007.3,P
1645726455.9,286047007.3,Y
1645726475.8,286047002.4,P
1645726495.6,286047000.1,N
1645726515.4,286047002.2,N
1645726535.3,286047002.3,N
1645726555.1,286047000.7,N
1645726575.8,286047011.9,Y
1645726595.7,286047002.8,P
1645726615.5,286047002.2,P
1645726635.4,286047004.3,P
1645726655.2,286047004.4,Y
1645726675.0,286047001.6,P
1645726675.9,286047001.6,N
1645726695.8,286047001.8,N
1645726715.6,286047002.0,Y
1645726735.4,286046998.1,P
1645726755.3,286046999.1,N
1645726775.1,286046999.0,N
1645726795.9,286047000.7,N
1645726815.7,286046999.8,N
1645726835.5,286047002.7,N
1645726855.4,286047000.4,N
1645726875.2,286046999.7,N
1645726895.0,286047000.5,N
1645726895.9,286047000.5,N
1645726915.8,286046998.7,N
1645726935.6,286046999.3,N
1645726955.5,286047002.6,N
1645726975.3,286046999.9,N
1645726995.1,286047000.9,N
1645727015.9,286046994.9,Y
1645727035.7,286046993.8,P
1645727055.6,286046990.6,N
1645727075.4,286046991.1,N
1645727095.2,286046991.9,N
1645727115.1,286046990.1,N
1645727116.0,286046990.1,N
1645727135.8,286046990.4,N
1645727155.6,286046992.6,N
1645727175.5,286046992.5,N
1645727195.3,286046992.1,N
1645727215.2,286046993.6,N
1645727235.9,286046990.4,Y
1645727255.7,286046999.5,P
1645727275.6,286047000.1,N
1645727295.4,286047001.5,N
1645727315.2,286047002.5,N
1645727335.1,286047011.9,Y
1645727336.0,286046998.2,P
1645727355.8,286046996.0,P
1645727375.7,286046997.0,N
1645727395.5,286046998.8,N
1645727415.3,286046999.2,N
1645727435.2,286046999.0,N
1645727485.0,286047002.4,E
1645727495.9,286046999.7,N
1645727515.7,286046998.2,P
1645727535.5,286046999.4,N
1645727555.4,286046996.5,Y
1645727575.2,286046999.1,P
1645727595.1,286046999.0,P
1645727596.0,286046999.0,P
1645727615.8,286046997.7,Y
1645727635.6,286047000.5,P
1645727655.5,286047000.9,N
1645727675.3,286047002.6,P
1645727695.1,286046996.6,N
1645727715.9,286046999.6,N
1645727735.7,286046995.1,N
1645727755.6,286046996.3,N
1645727775.4,286046993.6,N
1645727795.2,286046995.6,N
1645727815.1,286046997.2,N
1645727816.0,286046997.2,N
1645727835.8,286046998.7,N
1645727855.6,286047000.8,N
1645727875.5,286047001.3,N
1645727895.3,286046999.4,N
1645727915.2,286046996.6,N
1645727935.9,286046998.4,N
1645727955.7,286046997.5,N
1645727975.6,286047000.4,N
1645727995.4,286047001.9,N
1645728015.2,286046998.4,N
1645728035.1,286047000.8,N
1645728036.0,286047000.8,N
1645728055.8,286047002.7,N
1645728075.7,286046999.5,N
1645728095.5,286046997.1,N
1645728115.3,286046993.6,N
1645728135.2,286046997.7,N
1645728155.0,286046997.7,N
1645728155.9,286046997.7,N
1645728175.7,286046997.9,N
1645728195.6,286046997.9,N
1645728215.4,286046996.7,N
1645728235.3,286046994.9,N
1645728255.1,286046994.5,N
1645728256.0,286046994.5,N
1645728275.8,286046994.7,N
1645728295.7,286046998.0,N
1645728315.5,286046998.0,N
1645728335.3,286046996.5,N
1645728355.2,286046996.1,N
1645728375.0,286046995.9,N
1645728375.9,286046995.9,N
1645728395.8,286046999.6,N
1645728415.6,286046997.5,N
1645728435.4,286046993.8,N
1645728455.3,286046994.7,N
1645728475.1,286046995.2,N
1645728495.9,286046990.2,Y
1645728515.7,286046993.8,P
1645728535.5,286046993.0,P
1645728555.4,286046993.0,P
1645728575.2,286046991.3,Y
1645728595.0,286046994.3,P
1645728596.0,286046994.3,P
1645728615.8,286046994.5,P
1645728635.6,286046996.8,Y
1645728655.5,286047003.5,P
1645728675.3,286047004.2,N
1645728695.1,286047004.1,N
1645728715.9,286047001.6,N
1645728735.7,286047005.8,N
1645728755.6,286047006.0,N
1645728775.4,286047003.9,N
1645728795.2,286047003.8,N
1645728815.1,286047001.1,N
1645728816.0,286047001.1,N
1645728835.8,286046998.1,N
1645728855.6,286046999.3,N
1645728875.5,286046998.8,N
1645728895.3,286046997.8,N
1645728915.2,286046997.1,N
1645728935.9,286046995.7,N
1645728955.7,286046997.9,N
1645728975.6,286046994.6,N
1645728995.4,286046997.1,N
1645729015.2,286047000.8,N
1645729035.1,286047000.6,N
1645729036.0,286047000.6,N
1645729055.8,286047001.6,N
1645729075.7,286047004.3,N
1645729095.5,286047004.8,N
1645729115.3,286047001.7,N
1645729135.2,286047001.8,N
1645729155.0,286047003.7,N
1645729155.9,286047003.7,N
1645729175.7,286047005.6,N
1645729195.6,286047000.5,N
